User: anonymous
Location: Huntington Beach
(33.6600°N, 117.9980°W)
Time: 06:26:20
(UTC-07:00)
Language:

HST - Orbit

View from above orbital plane
View from above orbital plane
View from above satellite
View from above satellite

Ground track
Ground track

The orbit data is extracted from the following two-line orbital elements,

1 20580U 90037B   14259.08306248  .00002824  00000-0  17862-3 0  1115
2 20580 028.4698 159.4834 0002958 175.2532 317.8986 15.05739347138432
Epoch (UTC): 16 September 2014 01:59:36
Eccentricity: 0.0002958
inclination: 28.4698°
perigee height: 547 km
apogee height: 551 km
right ascension of ascending node: 159.4834°
argument of perigee: 175.2532°
revolutions per day: 15.05739347
mean anomaly at epoch: 317.8986°
orbit number at epoch: 13843

The dashed part of the orbit path shows where the satellite is in the earth's shadow,  

DLR